"Pseudo-MPEC" for C2572M2

Created 2020 Feb 14 17:07:03 UT using Find_Orb

Click here for an explanation of pseudo-MPECs

 
 Astrometry: 
     C2572M2  C2020 02 14.44287 11 04 39.08 +20 51 19.4    ~2EBM 20.6 GVNEOCPG96
     C2572M2  C2020 02 14.44800 11 04 39.00 +20 51 34.3    ~2EBM 21.3 GVNEOCPG96
     C2572M2  C2020 02 14.45313 11 04 38.88 +20 51 48.8    ~2EBM 20.9 GVNEOCPG96
     C2572M2  C2020 02 14.45825 11 04 38.74 +20 52 03.6    ~2EBM 20.6 GVNEOCPG96
     C2572M2  C2020 02 14.51370 11 04 37.58 +20 54 42.4    ~2ECb 22.6 GVNEOCPI52
     C2572M2  C2020 02 14.51545 11 04 37.63 +20 54 47.2    ~2ECb 21.1 GVNEOCPI52
     C2572M2  C2020 02 14.51720 11 04 37.58 +20 54 52.5    ~2ECb       VNEOCPI52
     C2572M2  C2020 02 14.51895 11 04 37.50 +20 54 58.0    ~2ECb       VNEOCPI52

Station data:
(G96) Mt. Lemmon Survey  (N32.442754 W110.788720)  US/Arizona.  Observers T.
   A. Pruyne, B. M. Africano, E. J. Christensen, G. A. Farneth, D. C. Fuls,
   A. R. Gibbs, A. D. Grauer, H. Gröller, J. A. Johnson, R. A. Kowalski, S.
   M. Larson, G. J. Leonard, D. Rankin, R. L. Seaman, F. C. Shelly. 1.5-m
   reflector + 10K CCD.
(I52) Steward Observatory, Mt. Lemmon Station  (N32.442547 W110.788920)
   US/Arizona.  Observers T. A. Pruyne, B. M. Africano, E. J. Christensen, G.
   A. Farneth, D. C. Fuls, A. R. Gibbs, A. D. Grauer, H. Gröller, J. A.
   Johnson, R. A. Kowalski, S. M. Larson, G. J. Leonard, D. Rankin, R. L.
   Seaman, F. C. Shelly. 1.0-m reflector + CCD.

Orbital elements:  C2572M2
   Perihelion 2019 Dec 2.045619 +/- 74.9 TT =  1:05:41 (JD 2458819.545619)
Epoch 2020 Feb 14.0 TT = JDT 2458893.5   Earth MOID: 0.3718   AutoNEOCP
M  28.19844735 +/- 37               (J2000 ecliptic)
n   0.38129515 +/- 0.237            Peri.  319.02055 +/- 90
a   1.88348366 +/- 0.787            Node   138.72236 +/- 40
e   0.3064672 +/- 0.201             Incl.   22.81677 +/- 14
P   2.58/944.13d           H 21.6   G  0.15   U 11.8  SR
q 1.30625752 +/- 0.386    Q 2.46070979 +/- 2.03
From 8 observations 2020 Feb. 14 (1.8 hr); mean residual 0".30
Residuals in arcseconds: 
200214 G96  .14-  .01-    200214 G96  .30-  .01-    200214 I52  .35+  .03-    
200214 G96  .28+  .14+    200214 I52  .61-  .12-    200214 I52  .29-  .46+    
200214 G96  .14+  .10-    200214 I52  .57+  .33-    

Ephemerides (geocentric):
Date (UTC) HH   RA              Dec         delta   r     elong  mag " sig PA
---- -- -- --  -------------   -----------  ------ ------ -----  --- ---- ---
2020 02 14 17  11 04 35.497   +21 04 09.82  .47020 1.4392 160.5 21.5 56.1 157
2020 02 14 18  11 04 34.841   +21 06 09.83  .47030 1.4394 160.5 21.5 62.8 156
2020 02 14 19  11 04 34.182   +21 08 09.77  .47039 1.4395 160.5 21.5 69.6 156
2020 02 14 20  11 04 33.519   +21 10 09.65  .47048 1.4396 160.5 21.5 76.4 155
2020 02 14 21  11 04 32.853   +21 12 09.46  .47057 1.4398 160.6 21.5 83.4 155
2020 02 14 22  11 04 32.183   +21 14 09.20  .47066 1.4399 160.6 21.5 90.5 154
2020 02 14 23  11 04 31.509   +21 16 08.88  .47076 1.4400 160.6 21.5 97.8 153
2020 02 15 00  11 04 30.832   +21 18 08.49  .47085 1.4402 160.6 21.5  105 152
2020 02 15 01  11 04 30.152   +21 20 08.03  .47095 1.4403 160.6 21.5  113 151
2020 02 15 02  11 04 29.468   +21 22 07.51  .47104 1.4404 160.6 21.5  120 150
2020 02 15 03  11 04 28.780   +21 24 06.92  .47113 1.4406 160.7 21.5  128 149
2020 02 15 04  11 04 28.089   +21 26 06.26  .47123 1.4407 160.7 21.5  137 148
2020 02 15 05  11 04 27.394   +21 28 05.53  .47133 1.4408 160.7 21.5  145 147
2020 02 15 06  11 04 26.696   +21 30 04.74  .47142 1.4410 160.7 21.5  154 146
2020 02 15 07  11 04 25.994   +21 32 03.87  .47152 1.4411 160.7 21.5  162 145
2020 02 15 08  11 04 25.288   +21 34 02.94  .47162 1.4412 160.7 21.5  172 143
2020 02 15 09  11 04 24.580   +21 36 01.93  .47171 1.4414 160.8 21.5  181 142
2020 02 15 10  11 04 23.867   +21 38 00.86  .47181 1.4415 160.8 21.5  191 141
2020 02 15 11  11 04 23.152   +21 39 59.72  .47191 1.4416 160.8 21.5  202 139
2020 02 15 12  11 04 22.433   +21 41 58.50  .47201 1.4418 160.8 21.5  212 138
2020 02 15 13  11 04 21.710   +21 43 57.22  .47211 1.4419 160.8 21.5  223 136
2020 02 15 14  11 04 20.984   +21 45 55.87  .47221 1.4421 160.8 21.5  235 135
2020 02 15 15  11 04 20.254   +21 47 54.44  .47231 1.4422 160.9 21.5  247 134
2020 02 15 16  11 04 19.521   +21 49 52.94  .47241 1.4423 160.9 21.5  260 132
2020 02 15 17  11 04 18.785   +21 51 51.37  .47251 1.4425 160.9 21.5  273 131
2020 02 15 18  11 04 18.045   +21 53 49.73  .47261 1.4426 160.9 21.5  287 129
2020 02 15 19  11 04 17.302   +21 55 48.01  .47271 1.4427 160.9 21.5  301 128
2020 02 15 20  11 04 16.555   +21 57 46.22  .47281 1.4429 160.9 21.5  316 127
2020 02 15 21  11 04 15.805   +21 59 44.36  .47291 1.4430 161.0 21.5  332 126
2020 02 15 22  11 04 15.051   +22 01 42.43  .47302 1.4431 161.0 21.5  348 124
2020 02 15 23  11 04 14.294   +22 03 40.42  .47312 1.4433 161.0 21.5  365 123
2020 02 16 00  11 04 13.534   +22 05 38.34  .47322 1.4434 161.0 21.5  382 122
2020 02 16 01  11 04 12.771   +22 07 36.18  .47333 1.4435 161.0 21.5  401 121
2020 02 16 02  11 04 12.004   +22 09 33.95  .47343 1.4437 161.0 21.5  420 120
2020 02 16 03  11 04 11.233   +22 11 31.65  .47354 1.4438 161.0 21.5  440 119
2020 02 16 04  11 04 10.460   +22 13 29.26  .47364 1.4439 161.0 21.5  460 118
2020 02 16 05  11 04 09.683   +22 15 26.81  .47375 1.4441 161.1 21.5  481 117
2020 02 16 06  11 04 08.902   +22 17 24.27  .47385 1.4442 161.1 21.5  504 116
2020 02 16 07  11 04 08.119   +22 19 21.67  .47396 1.4443 161.1 21.5  527 115
2020 02 16 08  11 04 07.332   +22 21 18.98  .47407 1.4445 161.1 21.5  550 114
2020 02 16 09  11 04 06.542   +22 23 16.22  .47417 1.4446 161.1 21.5  575 114
2020 02 16 10  11 04 05.748   +22 25 13.38  .47428 1.4448 161.1 21.5  601 113
2020 02 16 11  11 04 04.951   +22 27 10.46  .47439 1.4449 161.1 21.5  627 112
2020 02 16 12  11 04 04.151   +22 29 07.47  .47450 1.4450 161.1 21.5  655 112
2020 02 16 13  11 04 03.348   +22 31 04.40  .47461 1.4452 161.2 21.5  683 111
2020 02 16 14  11 04 02.541   +22 33 01.25  .47472 1.4453 161.2 21.5  712 110
2020 02 16 15  11 04 01.731   +22 34 58.02  .47483 1.4454 161.2 21.5  743 110
2020 02 16 16  11 04 00.918   +22 36 54.71  .47494 1.4456 161.2 21.5  774 109